Location: Moscow Pond
(43.6842°N, 73.2366°W)
Time: 02:20:18
(UTC+00:00)

Cosmos 2369 Rocket - Pass Details

Date: 08 November 2025
Orbit: 826 x 852 km, 71.0° (Epoch: 04 December)

Event Time Altitude Azimuth Distance (km) Brightness Sun altitude
Rises 10:33:29 0° 342° (NNW) 3,407 5.1 -12.0°
Reaches altitude 10° 10:36:20 10° 355° (N) 2,473 4.5 -11.5°
Maximum altitude 10:41:05 27° 52° (NE) 1,588 4.1 -10.7°
Drops below altitude 10° 10:45:50 10° 109° (ESE) 2,474 6.3 -9.8°
Sets 10:48:41 0° 121° (ESE) 3,409 7.0 -9.4°
